Location: Esp�n
(42.4593°N, 0.2047°W)
Time: 21:35:55
(UTC+00:00)

SL-8 Rocket - Pass Details

Date: 07 June 2020
Orbit: 956 x 991 km, 82.9° (Epoch: 04 July)

Event Time Altitude Azimuth Distance (km) Brightness Sun altitude
Exits shadow 03:11:29 11° 201° (SSW) 2,639 5.7 -11.2°
Maximum altitude 03:17:24 61° 280° (W) 1,109 4.2 -10.4°
Drops below altitude 10° 03:23:36 10° 1° (N) 2,733 7.0 -9.6°
Sets 03:26:10 0° 5° (N) 3,680 7.8 -9.3°
